EW4719 Weather Reports


Display with metric or nautical units.
time (UTC)temp
F
wind
direction
speed
MPH
gust
MPH
rain 1hr
in
rain 24hr
in
rain mn
in
humidity
%
barometer
mb
20260504050114 45 67 0.0 0.0 0.00 0.12 0.00 94 1014.3
20260504044504 44 67 0.0 0.0 0.00 0.17 0.00 94 1014.3
20260504043003 44 123 0.0 0.0 0.00 0.17 0.00 94 1014.4
20260504041534 44 123 0.0 0.0 0.00 0.17 0.00 94 1014.4
20260504034551 44 123 0.0 0.0 0.00 0.22 0.00 93 1014.6
20260504033118 44 123 0.0 0.0 0.00 0.22 0.00 93 1014.6
20260504031528 44 123 0.0 0.0 0.00 0.22 0.00 93 1014.6
20260504030059 44 123 0.0 0.0 0.00 0.22 0.00 93 1014.4
20260504024601 44 123 0.0 0.0 0.00 0.25 0.00 93 1014.6
20260504023110 44 123 0.0 0.0 0.00 0.25 0.00 93 1014.6
20260504021519 44 123 0.0 0.0 0.00 0.25 0.00 93 1014.5
20260504020132 44 123 0.0 0.0 0.00 0.25 0.00 93 1014.5
20260504014536 44 123 0.0 0.0 0.00 0.31 0.00 93 1014.5
20260504013114 44 113 0.0 0.0 0.00 0.31 0.00 93 1014.4
20260504011605 44 113 0.0 0.0 0.00 0.31 0.00 93 1014.5
20260504010126 44 115 0.0 1.0 0.00 0.31 0.00 93 1014.4
20260504004541 44 115 0.0 2.0 0.00 0.36 0.00 93 1014.4
20260504003100 44 327 0.0 2.0 0.00 0.36 0.00 93 1014.4
20260504001605 44 327 0.0 3.0 0.00 0.36 0.00 93 1014.6
20260504000124 44 327 0.0 0.0 0.00 0.36 0.00 93 1014.5
20260503234528 44 327 0.0 1.0 0.00 0.37 0.00 93 1014.5
20260503233056 44 340 1.0 3.0 0.00 0.37 0.00 93 1014.5
20260503231554 44 340 0.0 2.0 0.00 0.37 0.00 92 1014.5
20260503230116 44 340 0.0 0.0 0.00 0.37 0.00 92 1014.3
20260503224601 43 98 0.0 0.0 0.00 0.37 0.37 92 1014.3
20260503223120 44 121 0.0 0.0 0.00 0.37 0.37 92 1014.2
20260503221609 44 121 0.0 0.0 0.00 0.37 0.37 92 1014.2
20260503220131 44 119 0.0 3.0 0.00 0.37 0.37 92 1014.3
20260503214541 44 71 1.0 3.0 0.00 0.37 0.37 92 1014.3
20260503213104 44 102 0.0 2.0 0.00 0.37 0.37 92 1014.1
20260503211605 44 117 0.0 2.0 0.00 0.37 0.37 92 1014.3
20260503210043 44 109 0.0 0.0 0.00 0.37 0.37 91 1014.4
20260503204546 44 109 0.0 0.0 0.00 0.37 0.37 92 1014.4
20260503203115 44 109 0.0 0.0 0.00 0.37 0.37 91 1014.4
20260503201605 44 109 0.0 2.0 0.00 0.37 0.37 91 1014.1
20260503200005 44 103 0.0 3.0 0.00 0.37 0.37 91 1014.1
20260503194548 44 55 0.0 2.0 0.00 0.37 0.37 91 1014.0
20260503193115 44 22 0.0 3.0 0.00 0.37 0.37 91 1014.0
20260503191503 45 84 0.0 2.0 0.00 0.37 0.37 91 1013.9
20260503190009 45 114 0.0 2.0 0.00 0.37 0.37 91 1013.6
20260503184544 45 61 0.0 0.0 0.00 0.37 0.37 91 1013.7
20260503183110 45 69 1.0 3.0 0.00 0.37 0.37 91 1013.7
20260503181501 45 78 1.0 4.0 0.00 0.37 0.37 91 1013.5
20260503180003 45 76 2.0 5.0 0.00 0.37 0.37 91 1013.5
20260503174552 45 67 2.0 6.0 0.00 0.37 0.37 91 1013.6
20260503173107 45 64 3.0 7.0 0.00 0.37 0.37 91 1013.7
20260503171605 45 70 2.0 8.0 0.00 0.37 0.37 91 1013.7
20260503140150 45 49 4.0 10.0 0.00 0.37 0.37 96 1013.7
20260503130119 44 32 3.0 12.0 0.01 0.37 0.37 96 1014.1
20260503120107 44 74 4.0 12.0 0.00 0.36 0.36 96 1014.1
20260503110132 44 53 5.0 11.0 0.00 0.36 0.36 96 1014.0
20260503090135 44 70 3.0 12.0 0.01 0.33 0.33 96 1013.9
20260503081545 44 117 5.0 12.0 0.02 0.32 0.32 96 1013.9
20260503071610 45 59 4.0 11.0 0.00 0.31 0.31 96 1013.6
20260503070136 45 248 2.0 14.0 0.00 0.31 0.31 96 1013.5